Notices

Please take our survey and provide feedback: https://eccc.sondage-survey.ca/f/LanguageSelection.aspx?s=442ca660-fcf1-47c0-95a9-59707d6fd709

Please note that for the Engineering Climate Datasets, IDF dataset is available through this link.  Intensity-Duration-Frequency (IDF) Files: Includes the latest version of short-duration rainfall Intensity-Duration-Frequency (IDF) statistics in the form of tables and graphs with accompanying documentation for various locations across Canada.  Current IDF files can be accessed through our station finder application or downloaded for each province and territory across Canada.  In addition, historical versions of IDF files are also available for download.  Updates of IDF files are provided approximately every two years depending on the availability of data.   Thank you for your patience as we enhance our systems.

Hourly Data Report for October 18, 2018

CORAL HARBOUR A
NUNAVUT
Current Station Operator: NAVCAN

64°11'36.000" N
83°21'34.000" W
62.20 m
2301002
71915
YZS

Download Data

Hourly Data (October 2018)
Hourly Data Report for October 18, 2018
TIME
LST
Temp Definition
°C
Dew Point Definition
°C
Rel Hum Definition
%
Precip. Amount Definition
mm

Wind Dir Definition
10's deg

Wind Spd Definition
km/h
Visibility Definition
km
Stn Press Definition
kPa
Hmdx Definition


Wind Chill Definition


Weather Definition


00:00 -13.8 -16.3 81   35 22 24.1 99.95   -23 LegendNANA
01:00 -13.4 -16.1 80   1 25 24.1 99.93   -23 Mainly Clear
02:00 -15.4 -17.9 81   34 20 24.1 99.95   -25 LegendNANA
03:00 -15.1 -17.6 81   35 23 24.1 99.97   -25 LegendNANA
04:00 -15.2 -17.6 82   36 22 24.1 99.98   -25 Clear
05:00 -15.9 -18.2 82   34 21 24.1 100.03   -26 LegendNANA
06:00 -16.9 -19.1 83   33 13 24.1 100.03   -25 LegendNANA
07:00 -15.6 -17.7 84   36 26 24.1 100.01   -26 Mainly Clear
08:00 -14.6 -16.9 83   1 23 24.1 100.01   -24 LegendNANA
09:00 -14.3 -16.6 83   35 17 24.1 100.01   -23 LegendNANA
10:00 -11.8 -14.1 83   34 10 24.1 100.02   -17 Mostly Cloudy
11:00 -10.2 -13.0 80   2 3 24.1 100.02   -12 LegendNANA
12:00 -9.8 -12.8 79   2 4 24.1 100.02   -12 LegendNANA
13:00 -9.6 -12.5 79   36 1 24.1 100.02   -10 Mostly Cloudy
14:00 -9.6 -12.2 82   36 2 12.9 100.03   -11 Snow
15:00 -9.5 -11.7 84   10 5 4.8 100.01   -12 Snow
16:00 -10.2 -12.2 86   8 3 9.7 99.98   -12 Snow
17:00 -11.9 -13.8 86   5 13 24.1 99.97   -19 LegendNANA
18:00 -11.3 -13.2 86   3 12 4.8 100.00   -17 Snow
19:00 -10.8 -12.7 86   5 9 12.9 99.99   -16 Snow
20:00 -11.0 -12.9 86   5 7 12.9 99.98   -15 Snow
21:00 -10.4 -12.1 87   2 9 19.3 99.93   -15 Snow
22:00 -9.8 -11.4 88   1 9 24.1 99.92   -15 Snow
23:00 -9.3 -10.9 88   2 10 24.1 99.90   -14 Snow

Notes on Data Quality.

Legend

  • E = Estimated
  • M = Missing
  • NA = Not Available*
  • [empty] = Indicates an unobserved value
Date modified: